When you browse on this site, cookies collect data to enhance your experience and personalize the content and advertising you see.
Visit our Privacy Policy to learn more. By continuing to use the site, you agree to this use of cookies and data.
  • En España
  • Lista de países
  • Para 7 días
  • Temperatura del agua
  • El tiempo en el mapa
  • Informadores
  • user-avatar
    Iniciar sesión

    Tiempo cada hora Chigirinka

    Hoy, 16 Noviembre, Sábado

    Tiempo Temperatura Precipitaciones Viento Presión Humedad
    00:00 -1°C° 0 mm 5 mps 749 mmHg 85%
    01:00 -1°C° 0 mm 5 mps 749 mmHg 86%
    02:00 -1°C° 0 mm 5 mps 749 mmHg 86%
    03:00 -1°C° 0 mm 5 mps 749 mmHg 87%
    04:00 -1°C° 0 mm 5 mps 748 mmHg 88%
    05:00 -2°C° 0 mm 6 mps 748 mmHg 89%
    06:00 -1°C° 0 mm 5 mps 748 mmHg 89%
    07:00 -1°C° 0 mm 5 mps 748 mmHg 89%
    08:00 -1°C° 0 mm 5 mps 748 mmHg 89%
    09:00 -1°C° 0 mm 5 mps 748 mmHg 87%
    10:00 -1°C° 0 mm 6 mps 748 mmHg 85%
    11:00 +1°C° 0 mm 6 mps 748 mmHg 83%
    12:00 +1°C° 0 mm 5 mps 748 mmHg 81%
    13:00 +1°C° 0 mm 5 mps 748 mmHg 80%
    14:00 +3°C° 0 mm 4 mps 748 mmHg 78%
    15:00 +1°C° 0 mm 4 mps 748 mmHg 81%
    16:00 +1°C° 0 mm 4 mps 748 mmHg 84%
    17:00 0°C° 0 mm 4 mps 748 mmHg 86%
    18:00 0°C° 0 mm 4 mps 748 mmHg 87%
    19:00 0°C° 0 mm 4 mps 748 mmHg 88%
    20:00 +1°C° 0 mm 3 mps 748 mmHg 89%
    21:00 +1°C° 0 mm 3 mps 748 mmHg 90%
    22:00 0°C° 0 mm 3 mps 748 mmHg 90%
    23:00 0°C° 0 mm 3 mps 748 mmHg 91%

    Mañana, 17 Noviembre, Domingo

    Tiempo Temperatura Precipitaciones Viento Presión Humedad
    00:00 0°C° 0 mm 3 mps 748 mmHg 91%
    01:00 0°C° 0 mm 3 mps 749 mmHg 92%
    02:00 +1°C° 0 mm 2 mps 749 mmHg 92%
    03:00 +1°C° 0 mm 2 mps 749 mmHg 92%
    04:00 +1°C° 0 mm 2 mps 749 mmHg 92%
    05:00 -1°C° 0 mm 2 mps 749 mmHg 92%
    06:00 +1°C° 0 mm 2 mps 749 mmHg 91%
    07:00 +1°C° 0 mm 2 mps 749 mmHg 91%
    08:00 +1°C° 0 mm 2 mps 750 mmHg 91%
    09:00 +1°C° 0 mm 3 mps 749 mmHg 87%
    10:00 +2°C° 0 mm 3 mps 749 mmHg 83%
    11:00 +3°C° 0 mm 3 mps 749 mmHg 80%
    12:00 +4°C° 0 mm 2 mps 749 mmHg 80%
    13:00 +4°C° 0 mm 2 mps 749 mmHg 80%
    14:00 +4°C° 0 mm 2 mps 749 mmHg 80%
    15:00 +4°C° 0 mm 2 mps 749 mmHg 83%
    16:00 +3°C° 0 mm 2 mps 749 mmHg 87%
    17:00 +2°C° 0 mm 2 mps 748 mmHg 90%
    18:00 +2°C° 0 mm 2 mps 748 mmHg 91%
    19:00 +2°C° 0 mm 2 mps 748 mmHg 92%
    20:00 +2°C° 0 mm 2 mps 748 mmHg 92%
    21:00 +2°C° 0 mm 2 mps 748 mmHg 93%
    22:00 +1°C° 0 mm 2 mps 748 mmHg 93%
    23:00 +1°C° 0 mm 2 mps 748 mmHg 94%

    Pasado mañana, 18 Noviembre, Lunes

    Tiempo Temperatura Precipitaciones Viento Presión Humedad
    00:00 +1°C° 0 mm 2 mps 748 mmHg 94%
    01:00 +1°C° 0 mm 2 mps 748 mmHg 94%
    02:00 +1°C° 0 mm 2 mps 748 mmHg 94%
    03:00 +1°C° 0 mm 2 mps 747 mmHg 94%
    04:00 -1°C° 0 mm 2 mps 747 mmHg 93%
    05:00 -1°C° 0 mm 2 mps 747 mmHg 93%
    06:00 -1°C° 0 mm 2 mps 747 mmHg 93%
    07:00 +2°C° 0 mm 1 mps 747 mmHg 92%
    08:00 +2°C° 0 mm 1 mps 747 mmHg 92%
    09:00 +2°C° 0 mm 1 mps 747 mmHg 88%
    10:00 +3°C° 0 mm 1 mps 747 mmHg 84%
    11:00 +4°C° 0 mm 1 mps 747 mmHg 80%
    12:00 +3°C° 0 mm 0 mps 747 mmHg 80%
    13:00 +4°C° 0 mm 0 mps 747 mmHg 80%
    14:00 +4°C° 0 mm 0 mps 746 mmHg 80%
    15:00 +3°C° 0 mm 0 mps 746 mmHg 83%
    16:00 +3°C° 0 mm 1 mps 746 mmHg 86%
    17:00 +3°C° 0 mm 1 mps 746 mmHg 88%
    18:00 +3°C° 0 mm 1 mps 746 mmHg 89%
    19:00 +1°C° 0 mm 2 mps 746 mmHg 90%
    20:00 +1°C° 0 mm 2 mps 746 mmHg 91%
    21:00 +1°C° 0 mm 2 mps 746 mmHg 92%
    22:00 +1°C° 0 mm 2 mps 746 mmHg 93%
    23:00 +1°C° 0 mm 2 mps 746 mmHg 94%

    19 Noviembre, Martes

    Tiempo Temperatura Precipitaciones Viento Presión Humedad
    00:00 +1°C° 0 mm 2 mps 747 mmHg 94%
    01:00 +1°C° 0 mm 2 mps 747 mmHg 94%
    02:00 +1°C° 0 mm 2 mps 747 mmHg 94%
    03:00 +2°C° 0 mm 2 mps 747 mmHg 95%
    04:00 +2°C° 0 mm 2 mps 747 mmHg 95%
    05:00 +2°C° 0 mm 2 mps 747 mmHg 95%
    06:00 +2°C° 0 mm 2 mps 747 mmHg 95%
    07:00 +3°C° 0 mm 2 mps 747 mmHg 95%
    08:00 +3°C° 0 mm 2 mps 747 mmHg 95%
    09:00 +3°C° 0 mm 2 mps 748 mmHg 94%
    10:00 +3°C° 0 mm 3 mps 748 mmHg 93%
    11:00 +3°C° 0 mm 3 mps 748 mmHg 92%
    12:00 +3°C° 0 mm 3 mps 748 mmHg 91%
    13:00 +3°C° 0 mm 4 mps 748 mmHg 90%
    14:00 +1°C° 0 mm 4 mps 748 mmHg 89%
    15:00 +1°C° 0 mm 4 mps 748 mmHg 88%
    16:00 +1°C° 0 mm 4 mps 749 mmHg 87%
    17:00 +1°C° 0 mm 5 mps 749 mmHg 86%
    18:00 +1°C° 0 mm 5 mps 749 mmHg 86%
    19:00 +1°C° 0 mm 5 mps 749 mmHg 85%
    20:00 -1°C° 0 mm 6 mps 750 mmHg 84%
    21:00 -1°C° 0 mm 6 mps 750 mmHg 83%
    22:00 -2°C° 0 mm 6 mps 750 mmHg 81%
    23:00 -3°C° 0 mm 6 mps 750 mmHg 80%

    20 Noviembre, Miércoles

    Tiempo Temperatura Precipitaciones Viento Presión Humedad
    00:00 -4°C° 0 mm 6 mps 751 mmHg 78%
    01:00 -4°C° 0 mm 6 mps 751 mmHg 77%
    02:00 -5°C° 0 mm 6 mps 751 mmHg 75%
    03:00 -5°C° 0 mm 6 mps 752 mmHg 73%
    04:00 -6°C° 0 mm 6 mps 752 mmHg 72%
    05:00 -6°C° 0 mm 6 mps 752 mmHg 70%
    06:00 -6°C° 0 mm 6 mps 752 mmHg 65%
    07:00 -6°C° 0 mm 6 mps 753 mmHg 60%
    08:00 -6°C° 0 mm 6 mps 753 mmHg 55%
    09:00 -6°C° 0 mm 6 mps 754 mmHg 49%
    10:00 -6°C° 0 mm 6 mps 754 mmHg 44%
    11:00 -5°C° 0 mm 5 mps 754 mmHg 39%
    12:00 -5°C° 0 mm 5 mps 754 mmHg 38%
    13:00 -5°C° 0 mm 5 mps 754 mmHg 36%
    14:00 -5°C° 0 mm 5 mps 754 mmHg 35%
    15:00 -6°C° 0 mm 5 mps 754 mmHg 35%
    16:00 -6°C° 0 mm 5 mps 755 mmHg 36%
    17:00 -7°C° 0 mm 5 mps 755 mmHg 37%
    18:00 -7°C° 0 mm 5 mps 755 mmHg 36%
    19:00 -7°C° 0 mm 5 mps 755 mmHg 36%
    20:00 -8°C° 0 mm 5 mps 755 mmHg 36%
    21:00 -8°C° 0 mm 4 mps 755 mmHg 36%
    22:00 -8°C° 0 mm 4 mps 756 mmHg 36%
    23:00 -8°C° 0 mm 4 mps 756 mmHg 36%

    21 Noviembre, Jueves

    Tiempo Temperatura Precipitaciones Viento Presión Humedad
    00:00 -8°C° 0 mm 4 mps 756 mmHg 36%
    01:00 -8°C° 0 mm 3 mps 756 mmHg 37%
    02:00 -8°C° 0 mm 3 mps 756 mmHg 37%
    03:00 -8°C° 0 mm 3 mps 756 mmHg 37%
    04:00 -8°C° 0 mm 3 mps 756 mmHg 38%
    05:00 -8°C° 0 mm 3 mps 756 mmHg 38%
    06:00 -8°C° 0 mm 3 mps 756 mmHg 38%
    07:00 -8°C° 0 mm 3 mps 756 mmHg 38%
    08:00 -8°C° 0 mm 3 mps 756 mmHg 38%
    09:00 -8°C° 0 mm 3 mps 756 mmHg 35%
    10:00 -7°C° 0 mm 3 mps 757 mmHg 33%
    11:00 -6°C° 0 mm 3 mps 757 mmHg 31%
    12:00 -6°C° 0 mm 3 mps 756 mmHg 31%
    13:00 -6°C° 0 mm 3 mps 756 mmHg 31%
    14:00 -5°C° 0 mm 3 mps 756 mmHg 30%
    15:00 -5°C° 0 mm 2 mps 756 mmHg 33%
    16:00 -5°C° 0 mm 2 mps 756 mmHg 35%
    17:00 -6°C° 0 mm 2 mps 755 mmHg 37%
    18:00 -6°C° 0 mm 2 mps 756 mmHg 37%
    19:00 -6°C° 0 mm 2 mps 756 mmHg 38%
    20:00 -6°C° 0 mm 2 mps 756 mmHg 39%
    21:00 -6°C° 0 mm 2 mps 756 mmHg 39%
    22:00 -6°C° 0 mm 2 mps 756 mmHg 39%
    23:00 -7°C° 0 mm 2 mps 756 mmHg 40%
    Mostrar más